Location: Campagne
(43.8639°N, 0.0013°W)
Time: 11:13:08
(UTC+00:00)

Daily predictions for brighter satellites

Satellite Brightness Start Highest point End
(mag) Time Altitude Azimuth Time Altitude Azimuth Time Altitude Azimuth
Meteor 1-22 Rocket 4.3 18:57:22 10° S 19:02:50 60° E 19:08:34 10° NNE
Cosmos 1898 Rocket 4.0 18:58:35 10° S 19:03:25 38° ESE 19:08:13 10° NE
PSLV R/B 3.7 19:01:19 10° S 19:05:21 74° WSW 19:09:26 10° NNW
Meteor 2-13 Rocket 4.5 18:59:49 10° N 19:06:01 82° E 19:12:11 10° S
Resurs 01 Rocket 2.0 19:02:01 10° S 19:06:23 69° W 19:10:45 10° NNW
Cosmos 2333 4.2 19:07:16 10° S 19:12:44 60° ESE 19:18:14 10° NNE
Cosmos 372 Rocket 4.0 19:09:01 10° S 19:14:10 65° ESE 19:19:22 10° NNE
Tiangong -0.4 19:11:47 10° WSW 19:14:24 24° SSW 19:17:01 10° SE
Meteor 1-24 Rocket 3.8 19:09:43 10° N 19:15:06 57° ENE 19:20:38 10° SSE
Cosmos 1538 Rocket 4.1 19:10:07 10° NNW 19:15:12 58° ENE 19:20:16 10° SE
CENTAUR R/B 3.9 19:08:50 10° NW 19:17:16 63° WSW 19:26:36 10° SSE
Cosmos 1844 4.2 19:11:39 10° NNW 19:17:24 67° WSW 19:23:07 10° SSE
Cosmos 2219 Rocket 2.3 19:13:16 10° S 19:18:37 50° ESE 19:24:00 10° NE
SPOT 5 3.0 19:15:12 10° SSE 19:19:52 53° ENE 19:24:19 10° N
Cosmos 2074 Rocket 4.0 19:15:58 10° S 19:22:05 65° E 19:28:15 10° NNE
CZ-4B R/B 4.1 19:18:54 10° SE 19:22:14 39° ENE 19:25:42 10° N
Meteor 1-31 Rocket 3.0 19:21:34 10° SE 19:24:52 40° ENE 19:28:12 10° N
Cosmos 1937 Rocket 3.8 19:19:56 10° S 19:24:55 44° ESE 19:29:56 10° NNE
COSMOS 2428 3.8 19:31:48 10° SSE 19:36:09 23° E 19:40:31 10° NE
USA 234 3.6 19:30:08 10° NE 19:36:40 72° NW 19:43:11 10° WSW
IRAS Rocket 4.2 19:32:41 10° SSE 19:38:12 77° ENE 19:43:42 10° NNW
Cosmos 1953 2.5 19:35:01 10° SSW 19:38:34 66° W 19:42:09 10° N
Meteor 1-15 Rocket 4.2 19:33:07 10° S 19:38:40 84° E 19:44:16 10° NNE
CZ-4B R/B 3.8 19:35:07 12° SE 19:39:49 39° ENE 19:44:58 10° N
CZ-4B DEB 4.4 19:35:05 10° SE 19:40:21 54° ENE 19:45:41 10° N
CSL-04 Rocket 3.7 19:35:07 10° SSE 19:40:37 80° ENE 19:46:12 10° NNW
Cosmos 2278 Rocket 3.9 19:40:50 10° N 19:44:38 18° NE 19:47:49 12° E
Cosmos 2333 Rocket 3.7 19:42:03 10° SW 19:47:21 40° WNW 19:52:40 10° NNE
NOSS 3-2 (C) 4.3 19:42:34 10° NNW 19:49:44 57° NE 19:56:23 18° ESE
Iridium 82 4.2 19:47:39 10° N 19:50:41 74° W 19:53:37 10° S
Cosmos 1703 Rocket 3.5 19:50:58 10° N 19:55:16 62° E 19:58:41 15° SSE
BREEZE-M DEB (TANK) 3.3 19:53:34 10° WNW 19:55:50 31° N 19:59:33 10° ENE
Cosmos 1470 Rocket 3.7 19:51:37 10° SSW 19:56:01 77° W 20:00:23 10° N
Geosat 3.9 19:51:29 10° NNE 19:56:30 76° ESE 20:01:29 10° SSW
Lacrosse 5 rocket 0.5 19:54:19 10° SW 19:57:31 67° SE 20:00:40 10° NE
NOSS 3-2 (A) 4.3 19:50:42 10° NW 19:58:13 75° WSW 20:06:45 11° SSE
ARIANE 6 FM1 Upper Stage 3.6 19:54:46 10° WSW 19:58:47 50° NW 20:02:45 10° NNE
Meteor 2-5 Rocket 4.0 19:54:42 10° NNW 20:00:12 68° W 20:05:42 10° S
ERS-1 Rocket 3.0 19:57:46 16° SSE 20:01:44 62° ENE 20:06:40 10° N
Cosmos 1933 Rocket 3.6 19:59:13 10° S 20:03:27 55° E 20:07:45 10° NNE
Nadezhda 3 Rocket 4.1 19:59:26 10° N 20:05:37 80° W 20:11:45 10° S
Cosmos 2218 Rocket 4.5 20:06:05 19° SE 20:09:49 38° E 20:15:25 10° NNE
Cosmos 1943 Rocket 3.2 20:05:40 10° N 20:10:39 30° NE 20:12:58 23° E
Helios 1A Rocket 3.2 20:09:37 10° N 20:12:45 49° WNW 20:15:52 10° SSW
Meteor 1-12 Rocket 4.3 20:06:50 10° S 20:12:47 80° E 20:18:49 10° NNE
In-Cosmos 22 Rocket 4.2 20:11:17 10° N 20:16:32 53° ENE 20:19:03 29° SE
OPS 6432 4.2 20:16:03 10° NW 20:19:27 80° NE 20:20:04 55° SE
Okean-O 3.1 20:20:35 35° ESE 20:21:35 40° ENE 20:25:42 10° N
Cosmos 494 Rocket 4.1 20:19:24 10° NNW 20:24:31 58° ENE 20:26:29 35° SE
Cosmos 962 Rocket 4.4 20:19:02 10° S 20:25:16 77° E 20:31:30 10° N
Cosmos 2360 Rocket 4.1 20:21:16 10° WSW 20:26:15 32° NW 20:31:18 10° N
CBERS 1 LM4 rocket 4.4 20:24:04 20° S 20:27:19 74° WSW 20:32:02 10° NNW
Cosmos 1869 Rocket 3.4 20:30:47 24° S 20:33:25 83° E 20:37:50 10° N
Cosmos 2322 Rocket 4.4 20:29:44 10° WSW 20:34:23 26° NW 20:39:04 10° N
ADEOS 3.6 20:32:48 24° S 20:36:02 77° WSW 20:41:16 10° NNW
Terra 2.0 20:34:16 25° S 20:36:58 69° WSW 20:41:40 10° NNW
CZ-4 R/B 3.1 20:35:12 10° SSW 20:38:30 28° W 20:41:48 10° NW
BREEZE-M DEB (TANK) 4.2 20:38:19 10° WSW 20:42:10 85° NNW 20:57:51 10° ENE
Okean O Rocket 1.5 20:43:57 59° SE 20:44:41 75° ENE 20:49:03 10° N
Cosmos 2237 Rocket 3.1 20:47:31 31° ENE 20:47:31 31° ENE 20:51:17 10° NE
Cosmos 2242 Rocket 4.1 20:42:20 10° N 20:46:21 41° ENE 20:46:21 41° ENE
Cosmos 1980 4.3 20:47:57 35° E 20:47:57 35° E 20:52:09 10° NE
SL-08 R/B 3.6 20:44:18 10° N 20:49:11 71° WNW 20:53:56 11° SSW
Cosmos 2322 3.7 20:44:20 10° SSW 20:50:03 82° WNW 20:55:49 10° NNE
CZ-4B R/B 3.9 20:51:35 29° NNE 20:51:35 29° NNE 20:53:49 10° N
ASTEX 1 3.6 20:50:47 48° E 20:50:55 48° ENE 20:55:38 10° N
Cosmos 2341 Rocket 3.9 20:46:43 15° S 20:52:03 88° W 20:58:22 10° N
IRS-1A Rocket 4.4 20:52:14 31° S 20:54:54 70° WSW 21:00:32 10° NNW
Cosmos 864 Rocket 4.5 20:51:53 18° S 20:56:48 86° W 21:03:05 10° N
Meteor 1-21 Rocket 4.1 20:53:52 10° N 20:59:29 89° E 21:01:09 49° S
Cosmos 1680 Rocket 4.0 20:55:43 10° NNW 21:00:47 53° WSW 21:02:37 35° SSW
SPOT 3 Rocket 3.7 21:02:11 54° E 21:02:29 55° ENE 21:07:33 10° N
Cosmos 2219 Rocket 4.2 20:58:05 10° WSW 21:02:47 27° NW 21:07:32 10° N
Spot 3 4.5 21:03:36 60° SSE 21:04:36 84° ENE 21:09:57 10° NNW
Meteor 2-14 Rocket 4.4 21:01:55 10° N 21:08:02 85° W 21:09:57 47° S
Meteor 2-21 Rocket 4.5 21:08:23 10° N 21:14:25 57° ENE 21:14:50 56° E
SL-24 R/B - RUBIN 2 4.2 21:11:41 10° NW 21:15:59 48° WSW 21:16:05 48° WSW
USA 245 4.0 21:17:15 52° N 21:17:15 52° N 21:20:45 10° NNW
COSMOS 2428 3.3 21:14:19 10° SW 21:19:56 56° WNW 21:25:35 10° NNE
Cosmos 2369 Rocket 4.2 21:16:59 10° N 21:20:08 15° NE 21:20:57 15° NE
NOSS 0 Rocket 3.9 21:16:35 10° SSW 21:22:49 82° WNW 21:29:06 10° NNE
Ariane Rocket 3.1 21:26:52 65° NE 21:26:52 65° NE 21:31:24 10° N
Cosmos 1727 Rocket 3.9 21:21:32 10° N 21:27:56 78° E 21:28:33 71° SE
Cosmos 2278 Rocket 2.0 21:23:46 10° NNW 21:29:29 87° WSW 21:29:39 84° S
USA 238 DEB 4.0 21:23:07 10° NNW 21:30:32 69° NE 21:32:16 55° ESE
USA 238 4.0 21:23:17 10° NNW 21:30:43 68° NE 21:32:26 54° ESE
Lacrosse 5 rocket 3.6 21:32:09 10° WNW 21:34:04 17° NW 21:34:04 17° NW
Cosmos 1378 Rocket 4.5 21:37:01 10° NNW 21:40:15 46° NNW 21:40:15 46° NNW
Meteor 2-8 Rocket 4.3 21:47:10 86° NNE 21:47:10 86° NNE 21:53:09 10° N
Cosmos 1656 Rocket 4.5 21:46:00 10° NNW 21:50:17 40° NNE 21:50:17 40° NNE
SL-16 R/B 4.3 21:58:05 16° NE 21:58:05 16° NE 21:59:16 10° NE
Cosmos 1943 Rocket 2.9 21:49:10 10° NW 21:54:29 45° WSW 21:54:29 45° WSW
Cosmos 614 Rocket 4.5 21:49:55 10° NNW 21:53:59 56° NNW 21:53:59 56° NNW
SeaSat 1 3.5 21:59:30 40° NNE 21:59:30 40° NNE 22:02:58 10° NNW
CZ-4B R/B 4.4 22:00:12 42° WNW 22:00:12 42° WNW 22:04:05 10° NNW
Cosmos 1934 Rocket 4.2 22:03:45 62° NE 22:03:45 62° NE 22:09:00 10° N
Cosmos 2123 Rocket 4.1 21:58:13 10° N 22:03:50 72° NNE 22:03:50 72° NNE
USA 59 Rocket 2.4 22:02:02 10° NNW 22:02:48 16° NNW 22:02:48 16° NNW
NOSS 3-4 (A) 3.7 22:10:28 54° NW 22:10:28 54° NW 22:15:56 10° NNE
NOSS 3-4 (C) 3.7 22:11:02 55° NW 22:11:02 55° NW 22:16:28 10° NNE
Okean O Rocket 4.4 22:21:11 11° W 22:21:22 11° W 22:22:19 10° WNW
Cosmos 2237 Rocket 3.4 22:29:12 35° WNW 22:30:09 38° NW 22:35:27 10° NNE
Cosmos 2369 Rocket 3.5 22:59:28 10° NNW 23:02:43 36° NNW 23:02:43 36° NNW
SJ 16-02 4.3 23:32:49 10° N 23:33:16 12° NNE 23:33:16 12° NNE
SL-16 R/B 3.8 23:39:53 31° NNW 23:39:53 31° NNW 23:43:29 10° NNE
CZ-2C R/B 4.3 23:44:18 30° NNE 23:44:18 30° NNE 23:47:21 10° N
ACS3 Solar Sail 4.1 23:39:32 10° ENE 23:40:25 12° ENE 23:40:25 12° ENE
